ギブス彗星

C/2012 F1 ( Gibbs )

English version
Home page
Updated on February 10, 2013

---------------------------------------------------------------------

・ プロフィール

発見日 2012年3月16日
発見光度 18.7等
発見者 A. R. Gibbs (Catalina)

・ 写真集

・ 軌道要素

Epoch 2012 Feb. 3.0 TT = JDT 2455960.5
T 2012 Feb. 19.08067 TT                                 MPC
q   2.5510618            (2000.0)            P               Q
z  +0.0129856      Peri.  300.41317     -0.94388154     -0.19063481
 +/-0.0000000      Node   129.95801     +0.00106732     +0.81484919
e   0.9668730      Incl.  159.39819     -0.33028244     +0.54742960
From 74 observations 2012 Mar. 16-Apr. 25, mean residual 0".6.

・ 光度変化

        m1 = 13.5 + 5 logΔ + 10.0 log r

---------------------------------------------------------------------

軌道要素はM.P.E.C. 2012-M33に掲載されたものです。
光度グラフはComet for Windowsで作成したものです。

---------------------------------------------------------------------

Copyright(C) Seiichi Yoshida (comet@aerith.net). All rights reserved.